Starlink 30584

operational
NORAD ID: 58089 Int'l Des: 2023-160 Owner: SPXS Country: US Constellation: starlink
LEOCIRCULAR

About Starlink 30584

Description loading...

Live Position

Loading 3D Globe...

Upcoming Passes

Altitude History

Altitude vs Time

uPlot chart will show altitude changes over time

Two-Line Element Set

1 58089U 23160Q 25352.87432770 -.00001508 00000-0 -96530-4 0 9990
2 58089 43.0043 159.1719 0002113 256.6685 103.3922 15.02540805120760
Epoch: Dec 18, 2025 • Age: 10 hours

Current Status

Altitude 563.6 km
Velocity 7.58 km/s
Sub-Earth Point 42.85°N, 62.49°E
Launch Date Oct 18, 2023
Age 2.1 years
Type internet

Technical Details

Classification Payload
Mass 730.00 kg
Dry Mass 700.00 kg
Total Mass 730.00 kg
Length 0.30 m
Diameter 4.10 m
Span 29.00 m
Shape Box + pan
Manufacturer SPXS
Bus Type Starlink V2M
Phase Status In Orbit
Owner/State SPXS/US

Large Constellations

Loading constellations...